| time (UTC) | temp F | wind direction | speed knots | gust knots | rain 1hr in | rain 24hr in | rain mn in | humidity % | barometer mb |
| 20260504174504 | 51 | 345 | 0.0 | 0.9 | 0.00 | 0.01 | 0.00 | 84 | 1015.2 |
| 20260504173003 | 51 | 316 | 0.0 | 0.9 | 0.00 | 0.01 | 0.00 | 85 | 1015.2 |
| 20260504171552 | 51 | 110 | 0.0 | 0.9 | 0.00 | 0.01 | 0.00 | 84 | 1015.2 |
| 20260504081515 | 61 | 240 | 0.0 | 2.6 | 0.00 | 0.01 | 0.01 | 87 | 1013.8 |
| 20260504044531 | 66 | 173 | 0.9 | 2.6 | 0.00 | 0.01 | 0.01 | 79 | 1013.0 |
| 20260504043025 | 65 | 166 | 0.9 | 2.6 | 0.00 | 0.01 | 0.01 | 80 | 1013.2 |
| 20260504041511 | 64 | 150 | 0.0 | 1.7 | 0.00 | 0.01 | 0.01 | 82 | 1013.2 |
| 20260504040108 | 64 | 150 | 0.0 | 2.6 | 0.00 | 0.01 | 0.01 | 82 | 1013.2 |
| 20260504034551 | 64 | 174 | 0.9 | 3.5 | 0.00 | 0.01 | 0.01 | 84 | 1013.4 |
| 20260504033033 | 63 | 165 | 0.0 | 3.5 | 0.00 | 0.01 | 0.01 | 84 | 1013.6 |
| 20260504031527 | 63 | 200 | 1.7 | 3.5 | 0.00 | 0.01 | 0.01 | 84 | 1013.7 |
| 20260504030035 | 62 | 238 | 0.9 | 2.6 | 0.00 | 0.01 | 0.01 | 86 | 1013.9 |
| 20260504024519 | 61 | 177 | 0.0 | 3.5 | 0.00 | 0.01 | 0.01 | 88 | 1014.4 |
| 20260504023016 | 60 | 120 | 0.9 | 3.5 | 0.00 | 0.01 | 0.01 | 89 | 1014.4 |
| 20260504021501 | 60 | 171 | 0.0 | 2.6 | 0.00 | 0.01 | 0.01 | 89 | 1015.1 |
| 20260504020050 | 60 | 145 | 0.0 | 1.7 | 0.00 | 0.01 | 0.01 | 89 | 1015.3 |
| 20260504014547 | 60 | 238 | 0.0 | 3.5 | 0.00 | 0.01 | 0.01 | 89 | 1015.4 |
| 20260504013033 | 60 | 288 | 0.9 | 2.6 | 0.00 | 0.01 | 0.01 | 88 | 1015.5 |
| 20260504011522 | 60 | 166 | 0.9 | 4.3 | 0.00 | 0.01 | 0.01 | 88 | 1015.8 |
| 20260504010015 | 60 | 140 | 0.9 | 2.6 | 0.00 | 0.01 | 0.01 | 88 | 1016.0 |
| 20260504004510 | 59 | 127 | 0.0 | 2.6 | 0.00 | 0.01 | 0.01 | 88 | 1016.1 |
| 20260504003059 | 59 | 58 | 0.0 | 1.7 | 0.00 | 0.01 | 0.01 | 87 | 1016.2 |
| 20260504001605 | 60 | 211 | 0.0 | 2.6 | 0.00 | 0.01 | 0.01 | 86 | 1016.2 |
| 20260504000034 | 60 | 271 | 0.0 | 1.7 | 0.00 | 0.01 | 0.01 | 86 | 1016.1 |
| 20260503234522 | 60 | 293 | 0.0 | 0.9 | 0.00 | 0.01 | 0.01 | 85 | 1016.0 |
| 20260503233007 | 60 | 278 | 0.0 | 0.9 | 0.00 | 0.01 | 0.01 | 85 | 1015.8 |
| 20260503231502 | 59 | 278 | 0.0 | 0.0 | 0.00 | 0.01 | 0.01 | 86 | 1016.0 |
| 20260503230059 | 59 | 269 | 0.0 | 0.9 | 0.00 | 0.01 | 0.01 | 86 | 1016.1 |
| 20260503224547 | 60 | 270 | 0.0 | 0.9 | 0.01 | 0.01 | 0.01 | 82 | 1016.1 |
| 20260503223026 | 61 | 246 | 0.0 | 0.9 | 0.01 | 0.01 | 0.01 | 81 | 1016.0 |
| 20260503221511 | 62 | 283 | 0.0 | 0.9 | 0.01 | 0.01 | 0.01 | 76 | 1015.8 |
| 20260503220105 | 64 | 261 | 0.0 | 4.3 | 0.01 | 0.01 | 0.01 | 72 | 1015.6 |
| 20260503214555 | 64 | 279 | 0.0 | 0.9 | 0.00 | 0.00 | 0.00 | 71 | 1015.7 |
| 20260503213052 | 63 | 264 | 0.0 | 0.9 | 0.00 | 0.00 | 0.00 | 71 | 1015.5 |
| 20260503211524 | 63 | 255 | 0.0 | 0.9 | 0.00 | 0.00 | 0.00 | 73 | 1015.4 |
| 20260503210017 | 62 | 250 | 0.0 | 0.9 | 0.00 | 0.00 | 0.00 | 75 | 1015.3 |
| 20260503204513 | 63 | 253 | 0.0 | 0.9 | 0.00 | 0.00 | 0.00 | 72 | 1015.0 |
| 20260503203020 | 63 | 268 | 0.0 | 0.9 | 0.00 | 0.00 | 0.00 | 71 | 1015.1 |
| 20260503201510 | 63 | 331 | 0.0 | 0.9 | 0.00 | 0.00 | 0.00 | 72 | 1014.9 |
| 20260503200005 | 63 | 271 | 0.0 | 2.6 | 0.00 | 0.00 | 0.00 | 73 | 1014.7 |
| 20260503194554 | 61 | 283 | 0.0 | 0.9 | 0.00 | 0.00 | 0.00 | 77 | 1014.6 |
| 20260503193042 | 60 | 283 | 0.0 | 0.0 | 0.00 | 0.00 | 0.00 | 81 | 1014.4 |
| 20260503191548 | 61 | 283 | 0.0 | 0.9 | 0.00 | 0.00 | 0.00 | 79 | 1014.4 |
| 20260503190019 | 61 | 283 | 0.0 | 0.0 | 0.00 | 0.00 | 0.00 | 79 | 1014.4 |
| 20260503184518 | 61 | 261 | 0.0 | 0.9 | 0.00 | 0.00 | 0.00 | 80 | 1014.5 |
| 20260503183015 | 59 | 287 | 0.0 | 0.9 | 0.00 | 0.00 | 0.00 | 83 | 1014.5 |
| 20260503181515 | 58 | 266 | 0.0 | 0.0 | 0.00 | 0.00 | 0.00 | 88 | 1014.6 |
| 20260503180026 | 58 | 266 | 0.0 | 0.9 | 0.00 | 0.00 | 0.00 | 89 | 1014.6 |